FW5216 Weather Reports


time (UTC)temp
C
wind
direction
speed
KPH
gust
KPH
rain 1hr
cm
rain 24hr
cm
rain mn
cm
humidity
%
barometer
mb
20260505124545 16 137 0.0 17.7 0.00 0.13 0.00 58 1005.3
20260505123036 16 153 0.0 22.5 0.00 0.13 0.00 58 1005.4
20260505121535 16 89 0.0 11.3 0.00 0.13 0.00 58 1005.4
20260505120043 16 103 0.0 19.3 0.00 0.13 0.00 59 1005.4
20260505114531 15 113 0.0 24.1 0.00 0.13 0.00 59 1005.4
20260505113030 15 95 0.0 22.5 0.00 0.13 0.00 59 1005.3
20260505111528 16 141 1.6 20.9 0.00 0.13 0.00 58 1005.4
20260505101524 15 103 0.0 16.1 0.00 0.13 0.00 58 1004.9
20260505100024 15 90 0.0 22.5 0.00 0.13 0.00 58 1005.0
20260505094520 15 87 0.0 20.9 0.00 0.13 0.00 57 1005.2
20260505093019 15 60 1.6 20.9 0.00 0.13 0.00 56 1005.2
20260505091517 16 175 0.0 14.5 0.00 0.13 0.00 55 1005.0
20260505090017 16 76 0.0 20.9 0.00 0.13 0.00 55 1005.0
20260505084534 16 61 0.0 1.6 0.00 0.13 0.00 55 1005.3
20260505083014 16 118 0.0 27.4 0.00 0.13 0.00 54 1005.1
20260505081518 16 101 0.0 12.9 0.00 0.13 0.00 54 1005.1
20260505080013 16 78 0.0 9.7 0.00 0.13 0.00 54 1005.3
20260505074512 16 150 1.6 20.9 0.00 0.13 0.00 53 1005.1
20260505073012 16 106 0.0 9.7 0.00 0.13 0.00 53 1005.1
20260505071511 16 113 0.0 0.0 0.00 0.13 0.00 53 1005.0
20260505070010 16 124 3.2 29.0 0.00 0.13 0.00 52 1005.2
20260505064509 16 101 0.0 20.9 0.00 0.13 0.00 52 1005.2
20260505063009 16 141 3.2 17.7 0.00 0.13 0.00 52 1005.2
20260505061513 16 70 0.0 0.0 0.00 0.13 0.00 52 1005.0
20260505060009 16 134 0.0 0.0 0.00 0.13 0.00 52 1004.9
20260505054507 16 86 0.0 6.4 0.00 0.13 0.00 52 1005.2
20260505053006 16 109 0.0 0.0 0.00 0.13 0.00 53 1005.3
20260505051503 15 150 0.0 0.0 0.00 0.13 0.00 53 1005.4
20260505041558 16 105 0.0 0.0 0.00 0.13 0.00 54 1005.6
20260505040056 16 77 0.0 0.0 0.00 0.13 0.00 53 1005.7
20260505034614 16 84 0.0 0.0 0.00 0.13 0.13 53 1005.6
20260505033057 16 146 0.0 0.0 0.00 0.13 0.13 52 1005.6
20260505031555 16 106 0.0 0.0 0.00 0.13 0.13 51 1005.7
20260505030053 17 117 0.0 0.0 0.00 0.13 0.13 50 1005.7
20260505024552 17 110 0.0 1.6 0.00 0.13 0.13 49 1005.8
20260505023052 17 112 0.0 3.2 0.00 0.13 0.13 49 1005.8
20260505021549 16 91 0.0 1.6 0.00 0.13 0.13 51 1005.9
20260505020049 16 109 0.0 0.0 0.00 0.13 0.13 53 1006.1
20260505014547 16 84 0.0 0.0 0.00 0.13 0.13 53 1005.9
20260505013046 16 107 0.0 0.0 0.00 0.13 0.13 53 1005.9
20260505011604 16 90 0.0 0.0 0.00 0.13 0.13 54 1005.9
20260505010049 16 109 0.0 0.0 0.00 0.13 0.13 55 1005.8
20260505004544 16 77 0.0 0.0 0.00 0.13 0.13 55 1005.7
20260505003044 15 83 0.0 0.0 0.00 0.13 0.13 57 1005.7
20260505001545 16 83 0.0 0.0 0.00 0.13 0.13 57 1005.6
20260505000055 17 125 0.0 0.0 0.00 0.13 0.13 55 1005.4
20260504234541 18 125 0.0 0.0 0.00 0.13 0.13 49 1005.3
20260504233054 18 184 0.0 0.0 0.00 0.13 0.13 47 1005.0
20260504231639 19 191 0.0 0.0 0.00 0.13 0.13 46 1005.0
20260504230039 19 160 0.0 0.0 0.00 0.13 0.13 46 1004.7
20260504224541 19 204 0.0 0.0 0.00 0.13 0.13 46 1004.6
20260504223037 19 108 0.0 0.0 0.00 0.13 0.13 47 1004.5
20260504221537 19 86 0.0 0.0 0.00 0.13 0.13 46 1004.5
20260504220036 20 158 0.0 0.0 0.00 0.13 0.13 45 1004.5
20260504214532 20 110 0.0 0.0 0.00 0.13 0.13 46 1004.5
20260504213034 20 134 0.0 0.0 0.00 0.13 0.13 45 1004.4
20260504211530 20 199 0.0 0.0 0.00 0.13 0.13 47 1004.3
20260504210030 19 127 0.0 0.0 0.00 0.13 0.13 46 1004.3
20260504204527 19 109 0.0 9.7 0.00 0.13 0.13 47 1004.4
20260504203027 19 124 0.0 1.6 0.00 0.13 0.13 47 1004.4
20260504201523 19 236 1.6 16.1 0.00 0.13 0.13 48 1004.7
20260504200021 19 122 0.0 16.1 0.00 0.13 0.13 48 1004.9
20260504194522 18 130 0.0 0.0 0.00 0.13 0.13 52 1005.1
20260504193015 17 129 0.0 0.0 0.00 0.13 0.13 51 1005.4
20260504191518 18 274 0.0 0.0 0.00 0.13 0.13 53 1005.7
20260504190009 17 106 0.0 0.0 0.00 0.13 0.13 55 1005.8
20260504184505 16 148 0.0 0.0 0.00 0.13 0.13 57 1006.3
20260504183004 15 137 0.0 0.0 0.00 0.13 0.13 58 1006.5
20260504181606 16 177 0.0 0.0 0.00 0.13 0.13 57 1006.8
20260504180058 15 118 0.0 12.9 0.00 0.13 0.13 57 1007.0
20260504174556 15 121 0.0 9.7 0.00 0.13 0.13 58 1007.3
20260504173054 15 153 0.0 0.0 0.00 0.13 0.13 58 1007.7
20260504171553 13 115 0.0 0.0 0.00 0.13 0.13 62 1007.8